Regional Weather Roundup
Issued by NWS

Home | Current Version | Previous Version | Graphics & Text | Print | Product List | Glossary On
Versions: 1 2 3 4 5 6 7 8 9 10 11 12 13 14 15 16 17 18 19 20 21 22 23 24 25 26 27 28 29 30 31 32 33 34 35 36 37 38 39 40 41 42 43 44 45 46 47 48 49 50
000
ASUS43 KBIS 272310
RWRND

NORTH DAKOTA REGIONAL WEATHER ROUNDUP
NATIONAL WEATHER SERVICE BISMARCK ND
500 PM CST TUE JAN 27 2015

NOTE: "FAIR" INDICATES FEW OR NO CLOUDS BELOW 12,000 FEET WITH NO
SIGNIFICANT WEATHER AND/OR OBSTRUCTIONS TO VISIBILITY.


NDZ001>003-009>011-017-280000-
NORTHWEST NORTH DAKOTA

CITY           SKY/WX    TMP DP  RH WIND       PRES   REMARKS
WILLISTON      CLOUDY    50  37  61 CALM      29.79S
MINOT          MOCLDY    45  37  73 SW8       29.78S
MINOT AFB      CLOUDY    40  40  99 SE1       29.78S
$$

NDZ018>021-031>035-040>046-280000-
SOUTHWEST NORTH DAKOTA

CITY           SKY/WX    TMP DP  RH WIND       PRES   REMARKS
BISMARCK       MOCLDY    51  27  39 S3        29.82F
DICKINSON      MOCLDY    55  37  50 SW6       29.80S
GARRISON         N/A     44  38  79 SW3       29.79S
HETTINGER ARPT PTCLDY    60  34  37 W7        29.84S
$$

NDZ004>008-012>016-024-026-027-054-280000-
NORTHEAST NORTH DAKOTA

CITY           SKY/WX    TMP DP  RH WIND       PRES   REMARKS
GRAND FORKS    CLOUDY    32  29  88 S17G25    29.94S
GRND FRKS AFB  CLOUDY    32  28  86 S14G23    29.93F
DEVILS LAKE    PTCLDY    36  32  87 S13       29.83F
$$

NDZ022-023-025-028>030-036>039-047>053-280000-
SOUTHEAST NORTH DAKOTA

CITY           SKY/WX    TMP DP  RH WIND       PRES   REMARKS
FARGO          CLOUDY    33  29  85 SE18      29.97S
JAMESTOWN      PTCLDY    37  34  89 SE10      29.86S
$$




USA.gov is the U.S. government's official web portal to all federal, state and local government web resources and services.